This demonstration page uses our WeatherBlox Daily Observations layout. Learn more.

Left ArrowRight Arrow

Hourly Observations for August 20, 2022

Temp ( °F °C ) Dew Point ( °F °C ) Humidity (%) Winds ( mph kmh ) Pressure ( in mb ) Visibility ( mi km ) Precip ( " mm )
12:52 am 00:52 Mostly Cloudy 71 21.7 60 15.6 68 68 W 10 17 29.87 1012 10 16 0.00 0.00
1:52 am 01:52 Partly Cloudy 70 21.1 60 15.6 71 71 WNW 13 20 29.86 1011 10 16 0.00 0.00
2:52 am 02:52 Partly Cloudy 68 20 60 15.6 76 76 WNW 9 15 29.86 1011 10 16 0.00 0.00
3:52 am 03:52 Mostly Cloudy 65 18.3 61 16.1 87 87 NNW 6 9 29.88 1012 10 16 0.00 0.00
4:52 am 04:52 Partly Cloudy 64 17.8 61 16.1 90 90 NW 5 7 29.88 1012 10 16 0.00 0.00
5:05 am 05:05 Mostly Cloudy 66 18.9 62 16.7 87 87 WNW 5 7 29.89 1012 10 16 0.00 0.00
5:42 am 05:42 Mostly Cloudy 65 18.3 62 16.7 90 90 W 6 9 29.91 1013 10 16 0.00 0.00
5:52 am 05:52 Mostly Cloudy 65 18.3 62 16.7 90 90 WNW 5 7 29.91 1013 10 16 0.00 0.00
6:52 am 06:52 Cloudy 65 18.3 62 16.7 90 90 WNW 6 9 29.94 1014 10 16 0.00 0.00
7:52 am 07:52 Cloudy 65 18.3 61 16.1 87 87 NW 10 17 29.96 1015 10 16 0.00 0.00
8:34 am 08:34 Cloudy 66 18.9 61 16.1 84 84 NW 6 9 29.97 1015 10 16 0.00 0.00
8:52 am 08:52 Cloudy 66 18.9 61 16.1 84 84 NNW 16 26 29.98 1015 10 16 0.00 0.00
9:52 am 09:52 Cloudy 67 19.4 61 16.1 81 81 NNW 13 20 29.99 1016 10 16 0.00 0.00
10:52 am 10:52 Cloudy 68 20 60 15.6 76 76 NW 12 19 30.01 1016 10 16 0.00 0.00
11:52 am 11:52 Mostly Cloudy 70 21.1 61 16.1 73 73 NNW 13 20 30.01 1016 10 16 0.00 0.00
12:46 pm 12:46 Mostly Cloudy 73 23 61 16 65 65 NNW 14 22 29.99 1016 10 16 0.00 0.00
12:52 pm 12:52 Mostly Cloudy 74 23.3 61 16.1 64 64 N 9 15 30.00 1016 10 16 0.00 0.00
1:52 pm 13:52 Mostly Cloudy 75 23.9 61 16.1 62 62 N 13 20 30.00 1016 10 16 0.00 0.00
2:52 pm 14:52 Mostly Cloudy 78 25.6 62 16.7 58 58 NNW 10 17 29.99 1016 10 16 0.00 0.00
3:52 pm 15:52 Mostly Cloudy 81 27.2 62 16.7 53 53 NW 13 20 29.98 1015 10 16 0.00 0.00
4:52 pm 16:52 Mostly Cloudy 80 26.7 62 16.7 54 54 N 13 20 29.97 1015 10 16 0.00 0.00
5:52 pm 17:52 Partly Cloudy 81 27.2 63 17.2 54 54 NNW 12 19 29.96 1015 10 16 0.00 0.00
6:52 pm 18:52 Mostly Cloudy 79 26.1 62 16.7 56 56 NE 10 17 29.97 1015 10 16 0.00 0.00
7:52 pm 19:52 Mostly Cloudy with Light Rain 75 23.9 64 17.8 69 69 N 7 11 29.98 1015 10 16 0.01 0.13
8:52 pm 20:52 Mostly Clear 69 20.6 65 18.3 87 87 NW 7 11 30.01 1016 10 16 0.01 0.13
9:52 pm 21:52 Clear 67 19.4 64 17.8 90 90 N 6 9 30.03 1017 10 16 0.00 0.00
10:52 pm 22:52 Clear 66 18.9 63 17.2 90 90 NNW 5 7 30.04 1017 10 16 0.00 0.00
11:52 pm 23:52 Clear 64 17.8 62 16.7 93 93 N 5 7 30.05 1018 10 16 0.00 0.00

Powered by AerisWeather